�������l�o���
Date,Time,MP-1(��Sv/h),MP-2(��Sv/h),MP-3(��Sv/h),MP-4(��Sv/h),MP-5(��Sv/h),MP-6(��Sv/h),MP-7(��Sv/h),MP-8(��Sv/h),����,����(m/s),���J
2017/03/25,00:00,1.024,1.687,1.151,1.996,1.382,0.542,1.000,0.931,���쐼,3.8,��
2017/03/25,00:10,1.024,1.690,1.153,1.990,1.381,0.543,1.001,0.929,���쐼,3.2,��
2017/03/25,00:20,1.025,1.687,1.152,1.992,1.382,0.545,1.001,0.931,��,3.3,��
2017/03/25,00:30,1.024,1.689,1.153,1.993,1.381,0.544,1.000,0.929,��,3.5,��
2017/03/25,00:40,1.024,1.689,1.152,1.994,1.382,0.544,1.001,0.932,��,4.4,��
2017/03/25,00:50,1.024,1.690,1.150,1.992,1.381,0.544,1.001,0.931,��,4.1,��
2017/03/25,01:00,1.024,1.691,1.153,1.991,1.381,0.544,1.003,0.928,��,3.1,��
2017/03/25,01:10,1.025,1.689,1.150,1.994,1.380,0.544,0.999,0.929,��,3.3,��
2017/03/25,01:20,1.024,1.691,1.151,1.991,1.383,0.543,1.000,0.931,���쐼,3.9,��
2017/03/25,01:30,1.024,1.690,1.151,1.997,1.380,0.544,1.000,0.930,���쐼,4.3,��
2017/03/25,01:40,1.024,1.689,1.151,1.995,1.376,0.544,1.000,0.930,���쐼,4.5,��
2017/03/25,01:50,1.024,1.688,1.151,1.992,1.381,0.543,1.000,0.931,��,4.9,��
2017/03/25,02:00,1.025,1.688,1.151,1.992,1.382,0.543,1.002,0.932,��,4.6,��
2017/03/25,02:10,1.023,1.690,1.150,1.993,1.380,0.543,1.002,0.930,��,4.2,��
2017/03/25,02:20,1.022,1.690,1.150,1.992,1.380,0.543,1.001,0.931,���쐼,4.0,��
2017/03/25,02:30,1.025,1.690,1.151,1.994,1.380,0.543,1.002,0.932,��,4.6,��
2017/03/25,02:40,1.023,1.691,1.152,1.997,1.381,0.543,0.999,0.931,��,5.4,��
2017/03/25,02:50,1.022,1.691,1.151,1.995,1.381,0.543,1.003,0.930,��,6.1,��
2017/03/25,03:00,1.023,1.689,1.152,1.995,1.382,0.543,1.001,0.931,��,6.1,��
2017/03/25,03:10,1.023,1.690,1.151,1.995,1.381,0.544,1.003,0.932,��,5.8,��
2017/03/25,03:20,1.025,1.689,1.150,1.994,1.379,0.543,1.002,0.930,��,5.5,��
2017/03/25,03:30,1.024,1.687,1.150,1.996,1.381,0.544,1.002,0.929,��,6.0,��
2017/03/25,03:40,1.024,1.688,1.150,1.992,1.379,0.541,1.001,0.930,��,6.5,��
2017/03/25,03:50,1.026,1.688,1.152,1.995,1.379,0.543,1.001,0.930,���k��,6.6,��
2017/03/25,04:00,1.022,1.689,1.151,1.995,1.381,0.544,1.000,0.930,���k��,5.5,��
2017/03/25,04:10,1.022,1.689,1.153,1.997,1.381,0.546,1.001,0.930,��,5.0,��
2017/03/25,04:20,1.023,1.690,1.150,1.994,1.380,0.542,1.000,0.929,��,4.4,��
2017/03/25,04:30,1.022,1.689,1.150,1.995,1.380,0.541,1.001,0.930,��,3.7,��
2017/03/25,04:40,1.026,1.686,1.150,1.994,1.378,0.544,1.002,0.929,���k��,5.0,��
2017/03/25,04:50,1.024,1.689,1.152,1.994,1.381,0.542,1.003,0.931,���k��,5.6,��
2017/03/25,05:00,1.021,1.686,1.153,1.995,1.380,0.542,1.002,0.929,���k��,4.6,��
2017/03/25,05:10,1.023,1.689,1.150,1.992,1.380,0.542,1.000,0.930,���k��,4.9,��
2017/03/25,05:20,1.023,1.688,1.151,1.994,1.377,0.542,1.000,0.929,��,2.6,��
2017/03/25,05:30,1.025,1.688,1.150,1.992,1.380,0.543,1.002,0.931,�k�k��,2.0,��
2017/03/25,05:40,1.024,1.689,1.150,1.993,1.380,0.542,1.001,0.932,�k�k��,2.2,��
2017/03/25,05:50,1.022,1.691,1.149,1.993,1.381,0.542,1.001,0.930,���k��,2.0,��
2017/03/25,06:00,1.025,1.686,1.149,1.992,1.380,0.543,0.999,0.930,���k��,4.0,��
2017/03/25,06:10,1.022,1.686,1.152,1.993,1.382,0.541,1.001,0.930,���k��,4.7,��
2017/03/25,06:20,1.025,1.686,1.150,1.993,1.379,0.542,1.001,0.929,���k��,4.3,��
2017/03/25,06:30,1.022,1.689,1.151,1.987,1.379,0.543,1.000,0.928,���k��,2.8,��
2017/03/25,06:40,1.024,1.688,1.150,1.994,1.379,0.545,1.002,0.930,�k��,2.0,��
2017/03/25,06:50,1.022,1.688,1.148,1.995,1.380,0.543,1.003,0.930,�k�k��,1.1,��
2017/03/25,07:00,1.020,1.688,1.152,1.994,1.380,0.543,1.002,0.932,�k��,1.7,��
2017/03/25,07:10,1.025,1.690,1.150,1.996,1.381,0.543,1.001,0.931,�k��,1.7,��
2017/03/25,07:20,1.024,1.687,1.151,1.992,1.378,0.545,1.001,0.931,�k,1.7,��
2017/03/25,07:30,1.026,1.692,1.151,1.998,1.381,0.544,1.003,0.931,�k�k��,2.5,��
2017/03/25,07:40,1.028,1.695,1.150,1.996,1.379,0.543,1.003,0.933,�k�k��,2.6,��
2017/03/25,07:50,1.026,1.691,1.155,1.994,1.380,0.544,1.003,0.931,�k�k��,2.3,��
2017/03/25,08:00,1.028,1.693,1.158,1.995,1.381,0.543,1.003,0.932,�k��,2.3,��
2017/03/25,08:10,1.024,1.688,1.158,1.996,1.380,0.543,1.005,0.932,�k��,5.0,��
2017/03/25,08:20,1.027,1.687,1.159,1.997,1.382,0.545,1.004,0.932,�k�k��,6.4,��
2017/03/25,08:30,1.027,1.684,1.160,1.997,1.386,0.544,1.003,0.932,�k�k��,9.6,��
2017/03/25,08:40,1.031,1.671,1.154,1.996,1.382,0.545,1.004,0.933,�k�k��,7.7,��
2017/03/25,08:50,1.029,1.688,1.160,2.000,1.382,0.546,1.005,0.933,�k��,6.3,��
2017/03/25,09:00,1.028,1.688,1.161,1.998,1.383,0.546,1.003,0.932,�k��,8.1,��
2017/03/25,09:10,1.029,1.691,1.163,2.000,1.383,0.545,1.004,0.934,�k�k��,8.4,��
2017/03/25,09:20,1.029,1.686,1.162,2.000,1.384,0.544,1.002,0.932,�k,5.8,��
2017/03/25,09:30,1.030,1.690,1.166,2.000,1.384,0.545,1.002,0.934,�k,5.5,��
2017/03/25,09:40,1.027,1.688,1.169,2.001,1.385,0.544,1.003,0.930,�k�k��,5.8,��
2017/03/25,09:50,1.027,1.685,1.166,1.998,1.387,0.546,1.005,0.931,�k�k��,5.6,��
2017/03/25,10:00,1.028,1.661,1.155,2.002,1.387,0.545,1.004,0.934,�k�k��,7.1,��
2017/03/25,10:10,1.031,1.589,1.163,2.001,1.385,0.545,1.006,0.930,�k�k��,6.3,��
2017/03/25,10:20,1.028,1.662,1.165,1.999,1.386,0.544,1.003,0.931,�k��,5.8,��
2017/03/25,10:30,1.030,1.673,1.164,2.001,1.384,0.546,1.003,0.930,�k�k��,6.7,��
2017/03/25,10:40,1.030,1.678,1.162,1.999,1.385,0.545,1.003,0.929,�k��,6.1,��
2017/03/25,10:50,1.032,1.687,1.167,2.001,1.387,0.546,1.002,0.931,�k��,5.1,��
2017/03/25,11:00,1.031,1.695,1.171,2.003,1.387,0.544,1.004,0.931,�k��,5.9,��
2017/03/25,11:10,1.032,1.690,1.168,2.003,1.387,0.545,1.002,0.931,�k�k��,5.7,��
2017/03/25,11:20,1.030,1.686,1.167,2.003,1.388,0.546,1.002,0.930,�k�k��,6.6,��
2017/03/25,11:30,1.032,1.689,1.170,2.003,1.391,0.545,1.003,0.930,�k�k��,6.5,��
2017/03/25,11:40,1.034,1.690,1.170,2.003,1.390,0.548,1.003,0.931,�k�k��,7.0,��
2017/03/25,11:50,1.032,1.696,1.172,2.002,1.389,0.544,1.003,0.931,�k�k��,5.3,��
2017/03/25,12:00,1.033,1.696,1.170,2.001,1.389,0.546,1.003,0.931,�k�k��,5.1,��
2017/03/25,12:10,1.032,1.695,1.170,2.001,1.387,0.545,1.002,0.930,�k��,5.2,��
2017/03/25,12:20,1.036,1.700,1.170,2.003,1.388,0.546,1.002,0.933,�k�k��,5.5,��
2017/03/25,12:30,1.037,1.696,1.171,2.009,1.385,0.545,1.004,0.930,�k��,6.3,��
2017/03/25,12:40,1.035,1.690,1.171,2.005,1.393,0.548,1.002,0.933,�k�k��,6.4,��
2017/03/25,12:50,1.038,1.696,1.169,2.006,1.389,0.546,1.006,0.933,�k��,5.6,��
2017/03/25,13:00,1.037,1.694,1.168,2.005,1.390,0.546,1.004,0.933,�k��,6.6,��
2017/03/25,13:10,1.036,1.692,1.167,2.003,1.389,0.546,1.003,0.932,�k�k��,6.2,��
2017/03/25,13:20,1.034,1.665,1.167,2.006,1.390,0.547,1.005,0.932,�k��,7.5,��
2017/03/25,13:30,1.031,1.600,1.165,2.003,1.391,0.546,1.001,0.933,�k��,5.6,��
2017/03/25,13:40,1.035,1.645,1.166,2.004,1.390,0.547,1.005,0.931,�k��,6.0,��
2017/03/25,13:50,1.037,1.668,1.172,2.007,1.392,0.546,1.004,0.931,�k��,5.8,��
2017/03/25,14:00,1.033,1.684,1.166,2.005,1.391,0.546,1.002,0.931,���k��,5.1,��
2017/03/25,14:10,1.037,1.679,1.167,2.006,1.394,0.546,1.004,0.932,���k��,4.1,��
2017/03/25,14:20,1.034,1.691,1.166,2.004,1.391,0.547,1.002,0.931,���k��,4.8,��
2017/03/25,14:30,1.030,1.695,1.166,2.004,1.391,0.545,1.004,0.929,���k��,4.5,��
2017/03/25,14:40,1.032,1.692,1.167,2.006,1.390,0.547,1.004,0.932,���k��,3.6,��
2017/03/25,14:50,1.032,1.693,1.169,2.006,1.390,0.546,1.002,0.932,���k��,3.2,��
2017/03/25,15:00,1.030,1.696,1.170,2.002,1.390,0.546,1.003,0.931,���k��,3.3,��
2017/03/25,15:10,1.037,1.693,1.172,2.006,1.391,0.546,1.002,0.931,��,3.6,��
2017/03/25,15:20,1.036,1.693,1.171,2.010,1.392,0.546,1.006,0.933,���쓌,3.4,��
2017/03/25,15:30,1.035,1.691,1.173,2.009,1.391,0.547,1.003,0.934,���쓌,2.0,��
2017/03/25,15:40,1.037,1.688,1.174,2.005,1.393,0.548,1.004,0.932,���쓌,2.0,��
2017/03/25,15:50,1.036,1.688,1.171,2.006,1.388,0.546,1.002,0.932,���쓌,1.9,��
2017/03/25,16:00,1.035,1.693,1.170,2.008,1.391,0.545,1.002,0.933,���쓌,2.2,��
2017/03/25,16:10,1.037,1.688,1.173,2.005,1.389,0.545,1.003,0.932,���쓌,1.5,��
2017/03/25,16:20,1.036,1.687,1.171,2.005,1.394,0.547,1.003,0.936,���쓌,2.0,��
2017/03/25,16:30,1.035,1.693,1.171,2.006,1.393,0.546,1.002,0.932,���쓌,1.5,��
2017/03/25,16:40,1.037,1.688,1.173,2.006,1.392,0.545,1.003,0.935,��쓌,2.6,��
2017/03/25,16:50,1.036,1.678,1.175,2.007,1.392,0.546,1.005,0.933,��쓌,3.4,��
2017/03/25,17:00,1.035,1.699,1.171,2.008,1.392,0.546,1.005,0.934,��쓌,2.8,��
2017/03/25,17:10,1.037,1.701,1.171,2.006,1.393,0.547,1.006,0.933,��쓌,4.1,��
2017/03/25,17:20,1.036,1.701,1.172,2.006,1.393,0.547,1.007,0.933,��쓌,4.8,��
2017/03/25,17:30,1.035,1.701,1.170,2.004,1.394,0.548,1.006,0.932,��쓌,3.8,��
2017/03/25,17:40,1.033,1.701,1.169,2.006,1.394,0.547,1.005,0.932,��,4.1,��
2017/03/25,17:50,1.033,1.702,1.169,2.006,1.394,0.546,1.006,0.932,��,4.3,��
2017/03/25,18:00,1.034,1.703,1.172,2.004,1.393,0.546,1.005,0.931,��,4.8,��
2017/03/25,18:10,1.034,1.700,1.169,2.005,1.393,0.545,1.006,0.933,��,4.9,��
2017/03/25,18:20,1.035,1.697,1.168,2.005,1.391,0.545,1.005,0.935,��,3.9,��
2017/03/25,18:30,1.033,1.700,1.169,2.001,1.392,0.546,1.006,0.932,��,3.4,��
2017/03/25,18:40,1.035,1.700,1.168,2.005,1.392,0.545,1.006,0.933,��,3.0,��
2017/03/25,18:50,1.032,1.697,1.170,2.005,1.392,0.545,1.005,0.931,��,2.2,��
2017/03/25,19:00,1.034,1.700,1.169,2.000,1.391,0.548,1.005,0.933,��,2.3,��
2017/03/25,19:10,1.034,1.695,1.168,2.004,1.390,0.545,1.002,0.932,���쐼,1.1,��
2017/03/25,19:20,1.034,1.695,1.166,2.006,1.392,0.546,1.004,0.933,��쐼,0.8,��
2017/03/25,19:30,1.033,1.695,1.166,2.004,1.390,0.546,1.004,0.933,��쓌,0.6,��
2017/03/25,19:40,1.032,1.695,1.169,2.003,1.390,0.546,1.003,0.933,��쐼,3.9,��
2017/03/25,19:50,1.030,1.695,1.170,2.002,1.391,0.545,1.003,0.934,��쐼,4.9,��
2017/03/25,20:00,1.031,1.693,1.167,2.001,1.392,0.545,1.003,0.931,��쐼,4.7,��
2017/03/25,20:10,1.033,1.693,1.167,2.001,1.391,0.546,1.003,0.931,��쐼,4.5,��
2017/03/25,20:20,1.032,1.691,1.167,2.004,1.393,0.545,1.003,0.932,��쐼,4.4,��
2017/03/25,20:30,1.031,1.693,1.169,2.003,1.393,0.545,1.003,0.931,��쐼,4.3,��
2017/03/25,20:40,1.034,1.694,1.170,2.004,1.390,0.545,1.003,0.932,��쐼,4.1,��
2017/03/25,20:50,1.032,1.694,1.168,2.003,1.392,0.546,1.003,0.930,��쐼,3.5,��
2017/03/25,21:00,1.032,1.696,1.166,2.001,1.391,0.546,1.003,0.932,��쐼,2.6,��
2017/03/25,21:10,1.031,1.693,1.165,2.003,1.392,0.545,1.003,0.933,��쐼,3.4,��
2017/03/25,21:20,1.032,1.692,1.165,2.002,1.392,0.544,1.003,0.934,��쐼,3.3,��
2017/03/25,21:30,1.030,1.694,1.167,2.003,1.392,0.546,1.006,0.932,�쐼,2.9,��
2017/03/25,21:40,1.031,1.694,1.168,2.000,1.392,0.544,1.004,0.932,�쐼,2.8,��
2017/03/25,21:50,1.031,1.693,1.169,2.002,1.391,0.545,1.004,0.931,�쐼,2.5,��
2017/03/25,22:00,1.034,1.693,1.166,2.004,1.390,0.544,1.005,0.932,�쐼,2.3,��
2017/03/25,22:10,1.032,1.695,1.166,2.004,1.392,0.545,1.004,0.931,�쐼,2.3,��
2017/03/25,22:20,1.031,1.694,1.169,2.001,1.391,0.545,1.005,0.931,�쐼,2.2,��
2017/03/25,22:30,1.031,1.693,1.167,2.003,1.391,0.545,1.004,0.931,�쐼,1.7,��
2017/03/25,22:40,1.032,1.695,1.167,2.002,1.392,0.545,1.003,0.931,���쐼,2.0,��
2017/03/25,22:50,1.032,1.694,1.167,2.003,1.392,0.545,1.003,0.934,��,2.0,��
2017/03/25,23:00,1.032,1.693,1.169,2.000,1.391,0.544,1.002,0.932,���k��,1.9,��
2017/03/25,23:10,1.031,1.695,1.167,2.002,1.392,0.547,1.004,0.931,-,CALM,��
2017/03/25,23:20,1.032,1.695,1.167,2.000,1.389,0.545,1.002,0.932,-,CALM,��
2017/03/25,23:30,1.031,1.691,1.165,2.000,1.390,0.546,1.002,0.932,�k�k��,0.8,��
2017/03/25,23:40,1.031,1.692,1.168,2.004,1.389,0.547,1.002,0.931,�k�k��,1.2,��
2017/03/25,23:50,1.032,1.692,1.166,2.003,1.391,0.545,1.002,0.932,�k��,2.2,��
